Wind_Speed
2 1 0 1 2 2 3 4 4 5 6 7 7 7 7 7 7 7 6 6 6 6 6 6 6 7 6 6 6 6 6 6 7 7 7 7 7 7 7 8 8 7 7
2 1 1 1 2 3 3 4 5 6 6 7 7 7 8 8 8 7 7 7 6 6 6 7 7 7 6 6 6 6 6 6 7 7 8 8 8 8 8 8 8 8 8
2 1 1 1 2 3 4 4 5 6 7 7 8 8 8 8 8 8 7 6 7 7 7 7 7 7 6 6 6 6 6 6 6 7 8 8 8 8 9 9 8 8 8
2 1 0 2 2 3 4 5 6 7 7 7 8 8 8 8 8 7 7 7 7 7 7 7 6 6 6 6 6 6 6 7 7 7 7 8 9 9 9 10 9 9 9
2 2 1 2 3 4 5 6 6 6 6 7 8 8 8 8 7 7 7 7 7 7 7 7 7 6 6 6 6 6 6 7 7 7 8 8 9 9 9 10 10 10 10
2 2 1 2 3 4 5 6 6 6 6 7 7 8 8 8 7 8 8 8 8 7 7 7 7 6 6 6 6 6 6 7 7 7 8 8 9 9 10 10 10 10 10
3 2 2 2 3 4 5 6 6 6 6 7 8 8 8 8 8 8 8 8 8 8 7 7 7 7 7 7 7 7 7 7 7 7 8 8 9 10 10 10 11 11 11
3 3 2 2 3 4 5 5 6 6 6 7 8 8 7 7 8 8 8 9 8 8 7 7 7 7 7 8 8 7 7 8 8 8 8 8 9 10 10 11 11 11 11
3 2 2 2 3 4 5 6 6 7 7 7 7 7 7 7 8 8 9 9 8 8 8 8 8 8 8 8 8 8 8 7 7 7 8 8 9 10 11 11 11 11 11
3 1 1 2 3 3 5 5 6 7 6 6 7 7 7 7 8 9 9 9 8 8 8 8 8 9 9 8 8 8 8 7 7 7 7 8 8 9 11 11 11 11 11
2 1 1 2 3 3 5 6 6 6 6 6 7 8 8 8 9 9 9 9 9 9 9 9 9 9 9 9 9 8 7 6 6 6 7 8 8 8 10 11 11 11 11
2 1 2 3 3 4 5 6 5 5 6 6 7 7 8 9 9 9 10 9 9 9 9 9 9 9 10 9 8 7 6 6 5 5 6 6 7 8 9 10 10 10 10
2 1 1 2 3 4 5 5 5 5 5 6 7 7 8 9 9 10 10 10 9 9 9 9 9 9 9 9 8 7 6 5 4 5 5 5 6 7 8 9 11 10 9
1 0 1 2 3 4 5 4 4 5 6 6 7 7 8 8 9 10 10 10 10 9 9 9 9 9 10 9 9 8 7 5 4 4 4 4 5 6 7 9 10 10 10
0 1 1 2 3 4 5 4 4 5 6 7 7 7 7 8 9 10 10 11 10 9 9 9 9 9 10 10 9 7 6 4 3 3 3 3 4 5 6 7 9 10 10
0 1 1 2 3 3 4 4 4 5 6 7 7 7 7 8 10 10 11 10 10 9 9 9 9 9 10 10 9 8 6 4 3 3 2 2 3 3 4 5 7 8 9
1 1 1 1 2 3 3 4 4 5 5 6 6 7 8 9 10 10 11 11 11 10 10 10 9 9 9 9 9 8 7 5 4 3 2 1 1 2 3 4 5 7 8
1 0 1 1 2 3 3 3 4 4 5 6 6 7 8 9 10 10 10 11 11 11 11 10 10 9 9 9 9 8 7 6 5 4 3 1 0 1 2 3 4 5 7
2 1 0 1 1 2 2 3 3 4 5 5 6 7 8 9 10 10 10 10 11 11 11 11 10 9 9 9 8 8 7 6 5 4 3 2 1 1 2 3 4 5 6
2 1 1 1 1 1 1 2 3 4 4 5 6 7 8 9 10 10 11 11 11 12 11 11 10 9 9 9 8 8 7 6 6 5 3 3 2 1 1 2 3 4 6
3 2 2 2 1 1 1 2 3 3 4 5 5 7 7 8 9 9 10 11 12 12 12 11 10 9 9 9 8 8 7 6 6 5 4 3 2 2 1 1 2 3 4
4 3 3 2 2 2 2 2 2 3 3 4 5 6 7 8 8 8 10 11 12 12 12 11 11 10 9 9 8 8 7 7 6 6 5 4 3 3 2 2 3 4 4
5 4 4 3 3 3 3 3 2 3 3 4 5 6 7 7 7 8 9 10 11 12 12 11 11 10 9 9 9 8 7 7 7 6 5 5 4 4 3 3 3 4 5
6 5 5 4 3 3 3 3 3 3 4 5 6 6 6 7 7 8 9 10 11 12 12 12 11 11 10 9 8 8 8 8 7 6 6 5 5 5 5 4 4 5 6
7 6 6 5 5 4 4 4 4 4 4 5 5 5 6 6 7 8 9 9 10 11 12 12 11 11 10 9 9 8 8 8 7 7 6 6 6 6 6 6 6 6 6
8 7 7 6 5 5 5 5 5 5 4 4 4 4 5 5 6 7 8 9 10 11 12 12 12 11 11 10 9 9 8 8 7 7 7 7 7 7 7 7 7 8 8
Wind_Direction
199 209 237 354 357 0 8 3 11 11 10 7 3 358 356 351 345 340 334 332 331 329 328 325 323 317 308 302 294 282 274 263 255 247 241 236 233 231 224 217 212 212 212
234 245 266 321 353 359 360 4 8 8 5 4 0 357 354 349 344 341 335 331 332 331 328 325 321 316 304 297 291 282 275 265 258 249 241 238 235 231 226 221 219 219 217
232 225 270 328 4 8 9 7 4 4 2 2 359 355 353 352 349 345 342 340 339 336 333 329 325 319 307 299 292 283 274 267 264 253 243 239 235 233 228 225 224 224 222
220 217 276 351 4 5 17 18 9 1 0 360 358 356 357 357 355 352 350 346 343 341 338 334 329 326 313 304 296 289 279 271 265 259 248 240 237 236 231 228 226 226 226
227 217 241 343 355 4 11 11 4 360 1 1 360 1 0 359 359 359 355 352 349 348 346 342 338 332 323 315 305 295 283 273 263 259 252 243 239 238 233 231 228 227 227
228 230 255 324 355 6 6 4 358 360 1 360 1 3 2 2 4 3 1 359 356 355 354 349 344 337 328 318 311 302 288 274 266 262 256 246 241 239 235 232 230 228 228
223 233 274 318 346 359 5 1 3 357 356 357 359 3 3 6 8 7 6 1 356 353 351 347 343 337 330 320 311 305 293 283 271 265 258 251 244 240 236 233 231 231 230
222 241 270 314 350 360 359 357 357 358 354 354 358 4 9 12 10 7 4 0 355 351 349 345 341 336 327 320 311 305 298 291 275 269 264 254 247 239 234 233 233 232 233
226 243 268 316 336 343 348 349 352 353 354 357 3 8 12 10 7 3 358 356 354 351 348 345 340 337 332 326 315 304 298 289 279 269 264 256 251 240 234 233 234 234 233
234 241 295 328 340 342 346 348 352 352 354 4 8 8 8 7 4 0 355 353 352 351 349 346 341 337 334 330 322 309 300 292 283 270 264 256 249 240 235 234 236 235 232
230 247 308 334 339 338 342 346 348 350 356 3 8 7 6 5 3 359 355 354 354 353 351 347 344 340 338 334 327 315 304 296 290 276 267 255 247 241 235 233 233 234 232
213 247 313 337 338 337 344 346 345 348 358 1 359 2 4 1 360 359 358 356 355 352 352 350 347 345 342 338 334 327 316 301 297 284 273 255 243 238 234 232 230 234 232
203 250 330 338 339 343 347 348 357 0 0 358 357 0 0 0 1 0 359 357 355 353 352 352 352 349 346 344 342 336 325 310 306 290 277 261 241 235 232 231 232 232 226
201 24 13 356 350 353 352 353 356 357 358 356 356 358 358 0 0 360 358 356 354 354 353 353 352 353 354 351 348 345 337 326 320 298 281 267 247 238 233 228 227 225 218
218 15 6 3 2 356 357 1 0 1 1 1 0 360 1 359 357 357 356 356 356 356 355 356 355 356 357 356 354 352 350 344 335 315 285 265 249 239 232 228 226 221 217
246 330 340 347 1 358 1 3 6 9 8 7 6 5 3 1 359 359 359 358 0 2 3 3 1 1 360 360 0 1 360 355 354 345 316 270 245 237 229 227 224 219 217
259 310 330 337 8 7 7 8 6 4 1 4 7 8 8 6 3 0 0 2 3 5 6 5 4 3 3 3 6 6 6 5 7 3 347 315 241 226 220 219 217 214 213
231 266 352 9 17 14 16 14 11 8 11 13 11 10 11 10 8 6 6 9 10 10 9 7 5 4 5 7 9 10 10 13 16 14 7 360 233 227 226 227 218 219 215
220 230 279 310 347 5 13 12 11 12 16 17 14 13 14 14 13 14 15 15 14 14 12 12 10 8 9 10 11 13 16 18 16 17 18 23 19 274 249 242 228 225 223
221 235 257 272 308 340 5 6 4 5 11 13 12 12 15 16 16 19 20 20 18 16 15 15 14 12 11 11 12 14 17 19 18 16 13 16 15 348 271 258 241 231 230
230 237 249 252 264 301 331 345 352 359 0 3 7 10 13 13 15 19 21 20 19 18 18 17 15 14 14 12 13 14 17 20 17 15 12 8 6 354 321 293 247 240 242
239 241 248 243 254 273 297 311 330 348 353 357 2 5 8 10 12 16 17 17 17 16 15 15 15 15 16 14 15 18 21 17 14 11 7 0 356 337 311 292 272 253 257
241 246 245 247 261 270 281 294 314 337 349 353 356 358 3 5 6 8 10 14 15 14 14 14 13 13 13 14 15 17 20 18 14 10 5 357 349 337 323 305 290 277 271
246 250 244 248 259 265 273 284 304 327 338 343 348 352 358 360 2 5 9 14 15 15 14 13 12 11 11 10 9 12 11 11 9 6 1 350 338 328 319 309 297 287 281
251 253 250 247 257 265 271 278 292 308 318 329 338 346 354 359 2 4 12 14 12 13 13 11 10 9 9 7 5 4 4 2 359 356 352 347 338 328 317 307 299 294 294
253 254 254 256 261 266 268 275 285 295 304 316 329 336 345 353 357 2 8 12 12 10 11 11 10 8 6 4 2 359 356 355 353 348 344 342 335 327 317 307 302 297 298
Height
5887 5887 5888 5888 5888 5887 5887 5887 5887 5886 5886 5885 5884 5883 5882 5881 5880 5880 5879 5878 5878 5877 5876 5875 5875 5874 5874 5873 5873 5873 5873 5873 5874 5874 5875 5875 5876 5877 5878 5879 5880 5881 5882
5888 5888 5888 5888 5888 5887 5887 5887 5886 5886 5885 5884 5884 5883 5882 5881 5880 5879 5878 5877 5877 5876 5875 5874 5874 5873 5873 5872 5872 5872 5872 5872 5872 5873 5873 5874 5875 5876 5877 5878 5879 5880 5881
5888 5888 5888 5888 5888 5887 5887 5887 5886 5886 5885 5884 5883 5882 5881 5880 5879 5878 5877 5876 5876 5875 5874 5873 5873 5872 5872 5872 5871 5871 5871 5871 5871 5871 5872 5873 5874 5875 5875 5876 5878 5879 5880
5888 5888 5888 5888 5888 5888 5887 5887 5886 5886 5885 5884 5883 5882 5881 5880 5879 5878 5877 5876 5875 5874 5873 5873 5872 5871 5871 5870 5870 5870 5870 5870 5870 5870 5870 5871 5872 5873 5874 5875 5876 5878 5879
5887 5888 5888 5888 5888 5887 5887 5886 5886 5885 5885 5884 5883 5882 5881 5880 5878 5878 5877 5875 5874 5873 5872 5872 5871 5870 5870 5870 5869 5869 5868 5868 5868 5868 5869 5870 5871 5872 5873 5874 5875 5876 5878
5887 5888 5888 5888 5888 5887 5887 5886 5886 5885 5884 5884 5883 5881 5880 5879 5878 5877 5876 5875 5874 5873 5872 5871 5870 5870 5869 5869 5868 5868 5867 5867 5867 5867 5868 5868 5869 5870 5871 5872 5874 5875 5876
5887 5888 5888 5888 5888 5887 5887 5886 5886 5885 5884 5883 5882 5881 5880 5879 5878 5877 5876 5874 5873 5872 5871 5870 5869 5869 5868 5867 5867 5866 5866 5866 5865 5866 5866 5867 5867 5868 5869 5871 5872 5873 5875
5887 5888 5888 5888 5887 5887 5887 5886 5886 5885 5884 5883 5882 5881 5880 5879 5878 5877 5875 5874 5873 5872 5871 5870 5869 5868 5867 5866 5865 5865 5864 5864 5864 5864 5865 5865 5866 5866 5868 5869 5870 5872 5873
5887 5888 5888 5888 5887 5887 5887 5886 5885 5884 5883 5882 5881 5880 5879 5878 5877 5876 5875 5873 5872 5871 5870 5869 5868 5867 5866 5865 5864 5863 5862 5862 5862 5862 5863 5863 5864 5865 5866 5867 5869 5870 5871
5886 5887 5888 5887 5887 5887 5886 5886 5885 5884 5883 5882 5881 5880 5879 5878 5877 5876 5874 5873 5871 5870 5869 5868 5867 5865 5864 5863 5862 5861 5861 5860 5860 5861 5861 5861 5862 5863 5864 5866 5867 5868 5870
5886 5887 5887 5887 5887 5887 5886 5885 5885 5884 5883 5882 5881 5880 5879 5878 5877 5875 5874 5872 5871 5870 5868 5867 5865 5864 5863 5862 5861 5859 5859 5859 5858 5859 5859 5860 5860 5861 5863 5864 5865 5867 5869
5886 5886 5887 5887 5886 5886 5886 5885 5884 5884 5883 5882 5881 5880 5879 5878 5876 5875 5873 5872 5870 5869 5867 5866 5865 5863 5862 5860 5859 5858 5857 5857 5857 5857 5857 5858 5859 5860 5861 5862 5864 5865 5867
5886 5886 5886 5886 5886 5886 5885 5885 5884 5883 5883 5882 5881 5880 5879 5877 5876 5874 5873 5871 5870 5868 5867 5865 5864 5862 5861 5859 5858 5857 5856 5855 5856 5856 5856 5856 5857 5858 5860 5861 5863 5864 5866
5885 5886 5886 5886 5886 5885 5885 5884 5884 5883 5882 5881 5880 5879 5878 5877 5876 5874 5872 5871 5869 5867 5866 5864 5863 5861 5860 5858 5857 5856 5855 5854 5855 5855 5855 5855 5856 5857 5858 5860 5861 5863 5865
5885 5886 5886 5886 5886 5885 5885 5884 5884 5883 5882 5881 5880 5879 5878 5876 5875 5873 5872 5870 5868 5867 5865 5864 5862 5861 5859 5858 5856 5855 5854 5854 5854 5854 5854 5854 5855 5856 5857 5859 5860 5862 5864
5885 5885 5886 5886 5885 5885 5885 5884 5884 5883 5882 5881 5880 5879 5877 5876 5874 5873 5871 5870 5868 5866 5864 5863 5862 5860 5859 5857 5856 5855 5854 5853 5853 5853 5853 5854 5854 5855 5857 5858 5859 5861 5863
5885 5885 5885 5885 5885 5885 5884 5884 5883 5883 5882 5881 5880 5879 5877 5876 5874 5872 5871 5869 5868 5866 5864 5863 5861 5860 5859 5857 5856 5855 5854 5853 5853 5853 5853 5853 5854 5855 5856 5858 5859 5861 5863
5884 5885 5885 5885 5885 5885 5884 5884 5883 5883 5882 5881 5880 5878 5877 5876 5874 5872 5871 5869 5867 5866 5864 5862 5861 5860 5858 5857 5856 5855 5854 5854 5853 5853 5853 5854 5854 5855 5856 5858 5859 5860 5862
5883 5884 5884 5885 5885 5885 5884 5884 5883 5883 5882 5881 5880 5879 5877 5876 5874 5873 5871 5869 5867 5866 5864 5862 5861 5860 5858 5857 5856 5855 5854 5854 5854 5854 5854 5854 5855 5856 5857 5858 5859 5860 5862
5883 5883 5884 5884 5884 5884 5884 5884 5883 5883 5882 5881 5880 5879 5877 5876 5875 5873 5871 5870 5868 5866 5864 5862 5861 5859 5858 5857 5856 5855 5855 5854 5854 5854 5854 5855 5855 5856 5857 5858 5859 5860 5862
5882 5883 5883 5884 5884 5884 5883 5883 5883 5882 5882 5881 5880 5879 5877 5876 5875 5873 5872 5870 5868 5866 5864 5862 5861 5860 5859 5857 5857 5856 5855 5855 5855 5855 5855 5855 5855 5856 5857 5858 5859 5860 5861
5881 5882 5882 5882 5883 5883 5883 5883 5882 5882 5881 5881 5879 5878 5877 5876 5875 5874 5872 5871 5869 5867 5865 5863 5861 5860 5859 5858 5857 5856 5856 5856 5855 5855 5855 5855 5856 5856 5857 5858 5859 5860 5861
5880 5880 5881 5881 5882 5882 5882 5882 5881 5881 5880 5880 5879 5878 5877 5876 5875 5874 5873 5871 5869 5868 5866 5864 5862 5860 5859 5858 5857 5857 5857 5856 5856 5856 5856 5856 5856 5856 5857 5858 5859 5860 5861
5878 5879 5880 5880 5880 5880 5880 5880 5880 5880 5880 5879 5878 5877 5877 5876 5875 5873 5872 5871 5870 5868 5866 5864 5862 5861 5860 5859 5858 5857 5857 5856 5856 5856 5856 5856 5856 5856 5857 5857 5858 5859 5860
5877 5877 5878 5878 5878 5879 5879 5879 5879 5879 5878 5878 5877 5876 5876 5875 5874 5873 5872 5871 5869 5868 5867 5865 5863 5861 5860 5859 5858 5858 5857 5857 5856 5856 5856 5856 5856 5856 5856 5857 5858 5858 5859
5875 5876 5876 5877 5877 5877 5877 5877 5877 5877 5877 5876 5876 5875 5875 5874 5874 5873 5872 5871 5869 5868 5867 5865 5864 5862 5861 5859 5859 5858 5857 5857 5856 5856 5856 5856 5856 5855 5855 5856 5857 5857 5857